STARLINK-1434, 45712

Orbit data source: Space-Track

STARLINK-1434, 45712 is a payload satellite owned by SpaceX/Seattle (US) in LEO that was launched on Thu, 04 Jun 2020 UTC via an FALCON 9 launch vehicle from the Air Force Eastern Test Range (AFETR). Payload-class satellites include a variety of spacecraft equipped with specific instruments for various scientific and technological missions. These include communications satellites like Starlink; space stations such as the ISS; scientific satellites like the Hubble; Earth observation satellites from companies like Planet Labs, Umbra, and HawkEye 360; GPS; miniature CubeSats for education and research; and military/defense satellites.

Loading next visibility...
Identifier
45712, 2020-035BH
Orbit
LEO
Country
Flag of USUS
Related business
Manufacturer
SpaceX/Seattle
Mission
Partially operational Commercial Communications
Bus & Motor
STARLINK, Unknown motor
Mass
260 kg wet, ~248 kg dry
Launch date (UTC)
2020-06-04 (5 years ago)
Launch vehicle
FALCON 9
Launch site
Air Force Eastern Test Range (AFETR)
Object type
Payload
Rocket body
Debris
Shape & HBR
Box + 1 Pan, 10.1 m
Radar Cross Section
13.562 m², Large (>1 m²)

Expand to show TLE details & history
Last TLE update: 13 hours ago

TLE from 13 hours ago
0 STARLINK-1434
1 45712U 20035BH  25287.31115986  .00038095  00000-0  20937-2 0  9995
2 45712  53.0511 330.8861 0002404 355.7589   4.3383 15.13756415297138
Epoch: 2025-10-14T07:28Z
TLE epoch observation values (Epoch: 2025-10-14T07:28:04.211Z)
Latitude
0.00001°
Longitude
-164.23285°
Altitude
523.984 km
Speed
7.603 km/s
True Right ascension
22h 03m 32s
True Declination
0° 00' 00"
Sunlit
Object was in full shadow at epoch
Visualization orbit readout
Latitude
Unknown
Longitude
Unknown
Altitude
Unknown
Speed
Unknown
Apparent Right ascension
Unknown
Apparent Declination
Unknown
Sunlit
N/A
Visualization observer readout
Local Sidereal Time
14:44:01
Azimuth
Unknown
Elevation
Unknown
Doppler factor
Unknown
Orbital elements
Apogee altitude
526.688 km
Perigee altitude
523.369 km
Semi-major axis
6,903.166 km
Eccentricity
0.00024
Inclination
53.0511°
RAAN
330.8861°
Arg. of periapsis
355.7589°
True anomaly
4.34038°
Mean anomaly
4.3383°
Eccentric anomaly
4.33934°
Mean motion
3.78417 °/min
Orbital period
95.13 mins
BSTAR
0.0020937
Loading maneuver chart data...
Computing Atmospheric mass density...
Loading historical data...
Loading historical data...
Loading historical data...
Loading historical data...
Loading historical data...
Loading historical data...
Loading historical data...

Documentation

Showing up to 5 results
|